Weather in Orotukan

Russia / Magadan District     62°15′51″N   151°40′20″E
temp.,
°C
wind,
m/s
gust,
m/s
humid.,
%
clouds,
%
prec.,
mm/h
press.,
hPa
HPBL,
m
12 august, fri
fri1223:00+12wsw1184100 0.1 100310
02:00+12sw228498 0.1 100317
05:00+12ssw2287100 0.1 100425
08:00+13sw1281100 0.0 1004229
11:00+13sw0183100 0.6 1005196
14:00+16ssw016675 0.3 1005784
17:00+17nne116298 0.8 1006931
20:00+15ne117769 1.3 100711
13 august, sat
sat1323:00+11ne11865 1.3 100810
02:00+9ene118978 0.0 100910
05:00+9e11915 0.0 101010
08:00+14ne11755 0.0 1010238
11:00+17ne22619 0.0 1010876
14:00+20ene335035 0.4 10081498
17:00+21e3443100 0.6 10071643
20:00+18e1260100 0.0 100811
14 august, sun
sun1423:00+16ene1161100 0.0 100811
02:00+16e116392 0.0 100811
05:00+13se1171100 0.0 100911
08:00+17se1157100 0.0 1009203
11:00+19ese2346100 0.0 10091219
14:00+19sse6650100 0.0 10091354
17:00+13s3482100 0.5 1010165
20:00+14e1184100 0.9 101131
15 august, mon
mon1523:00+12ne2290100 0.9 101233
02:00+10nne229095 0.0 101237
05:00+9ne229144 0.3 101279
08:00+9ne229270 0.3 1012191
11:00+10ne2291100 0.4 1012387
14:00+12ne228378 0.1 1011455
17:00+12ne238099 0.1 1010577
20:00+11ne128545 0.0 1010231
16 august, tue
tue1623:00+10nne1188100 0.0 100936
02:00+10n2287100 0.0 100781
05:00+9nne2291100 0.0 100647
08:00+11n3483100 0.0 1004295
11:00+11n4682100 0.1 1002516
14:00+12nne5989100 2.0 999792
17:00+11nne51299100 12.1 998781
20:00+10n4798100 5.6 997426